User: anonymous   Login
Location: Newark
(54.6833°N, 25.2833°E)
Time: 22:12:19
(UTC+00:00)
Language:

deb Explorer IX - Orbit

View from above orbital plane
View from above orbital plane
View from above satellite
View from above satellite

Ground track
Ground track

The orbit data is extracted from the following two-line orbital elements,

1    85U 61004C   19320.26696919 +.00001195 +00000-0 +28055-3 0  9996
2    85 038.7725 032.9978 0387755 152.5960 209.5820 14.19946860900630
Epoch (UTC): 16 November 2019 06:24:26
Eccentricity: 0.0387755
inclination: 38.7725°
perigee height: 546 km
apogee height: 1105 km
right ascension of ascending node: 32.9978°
argument of perigee: 152.5960°
revolutions per day: 14.19946860
mean anomaly at epoch: 209.5820°
orbit number at epoch: 90063

The dashed part of the orbit path shows where the satellite is in the earth's shadow,  

DLR